Flag for Germany Weather past 2 weeks in Pirmasens, Rhineland-Palatinate, Germany

Now
44 °F

Overcast.


Feels Like: 38 °F
Forecast: 37 / 44 °F
Wind: 10 mph from Southwest

Location: Ramstein

Current Time: Dec 22, 2014 at 10:27:13 AM

Latest Report: Dec 22, 2014 at 9:58 AM


Visibility: N/A

Pressure: 30.35 "Hg

Humidity: 78%

Dew point: 37 °F

Location of PirmasensLocation

Historic Weather in Pirmasens — Graph

°F

Pirmasens temperature yesterday

Maximum temperature yesterday: 45 °F (at 1:58 PM)
Minimum temperature yesterday: 37 °F (at 5:58 AM)
Average temperature yesterday: 41 °F

Past Weeks' High & Low Weather Summary

 TemperatureHumidityPressure
High54 °F (Dec 18, 3:58 PM)100% (Dec 7, 8:00 AM)30.54 "Hg (Dec 7, 8:00 AM)
Low30 °F (Dec 8, 5:58 PM)65% (Dec 12, 6:58 PM)29.65 "Hg (Dec 12, 5:58 PM)
Average42 °F88%30.08 "Hg
* Reported Dec 7 8:00 AM — Dec 22 8:58 AM, Pirmasens, Weather by CustomWeather, © 2014

Note: Actual official high and low records may vary slightly from our data, if they occured in-between our weather recording intervals... More about our weather records

Advertising

Pirmasens weather history for previous 24 hours

 ConditionsComfort  
Time TempWeatherWind HumidityBarometerVisibility
8:58 AM
Dec 22
43 °FOvercast.10 mph81%30.35 "HgN/A
8:00 AM43 °FOvercast.16 mph81%30.32 "HgN/A
6:58 AM42 °FOvercast.14 mph85%30.35 "HgN/A
6:04 AM43 °FOvercast.14 mph81%30.31 "HgN/A
5:58 AM43 °FOvercast.10 mph81%30.34 "HgN/A
4:58 AM43 °FOvercast.16 mph76%30.35 "HgN/A
3:58 AM43 °FOvercast.16 mph76%30.36 "HgN/A
2:58 AM43 °FMostly cloudy.14 mph76%30.37 "HgN/A
1:58 AM43 °FOvercast.14 mph75%30.38 "HgN/A
12:58 AM43 °FOvercast.16 mph73%30.40 "HgN/A
11:58 PM
Dec 21
43 °FOvercast.16 mph76%30.40 "HgN/A
10:58 PM44 °FOvercast.14 mph72%30.40 "HgN/A
9:58 PM44 °FOvercast.14 mph74%30.42 "HgN/A
8:58 PM43 °FPassing clouds.14 mph76%30.45 "HgN/A
7:58 PM44 °FPassing clouds.14 mph73%30.45 "HgN/A
6:58 PM43 °FOvercast.14 mph76%30.45 "HgN/A
5:58 PM45 °FMostly cloudy.12 mph71%30.45 "HgN/A
4:58 PM45 °FMostly cloudy.10 mph71%30.45 "HgN/A
3:58 PM45 °FMostly cloudy.9 mph76%30.45 "HgN/A
2:58 PM43 °FOvercast.8 mph81%30.47 "HgN/A
1:58 PM45 °FMore clouds than sun.13 mph76%30.47 "HgN/A
1:03 PM43 °FMostly cloudy.7 mph81%30.46 "HgN/A
11:58 AM42 °FMostly cloudy.8 mph82%30.51 "HgN/A
10:58 AM41 °FLow clouds.12 mph87%30.54 "HgN/A
Weather by CustomWeather, © 2014

See weather overviewHow to use our weather pages